CBERS 1 DEB, 35387

Orbit data source: Space-Track

CBERS 1 DEB, 35387 is space debris in SSO originally from a launch on Thu, 14 Oct 1999 UTC launched from the Taiyaun Space Center, China (TSC). Debris objects in space refer to the collection of defunct objects orbiting the Earth. Examples of debris include non-operational satellites, rocket bodies, and fragments generated from explosions, collisions, or faulty payload assembly.

Loading next visibility...
Identifier
35387, 1999-057SS
Orbit
SSO
Country
Flag of UnknownUnknown / CHBZ
Related business
Manufacturer
Unknown
Mission
Spacecraft
Bus & Motor
Unknown
Mass
Unknown
Launch date (UTC)
1999-10-14 (26 years ago)
Launch vehicle
Unknown
Launch site
Taiyaun Space Center, China (TSC)
Object type
Payload
Rocket body
Debris
Shape & HBR
Unknown shape, 0.1 m
Radar Cross Section
Small (<0.1 m²)

Expand to show TLE details & history
Last TLE update: 2 days ago

TLE from 2 days ago
0 CBERS 1 DEB
1 35387U 99057SS  26036.41074381  .00026041  00000-0  30050-2 0  9994
2 35387  98.5085 103.9818 0001210 274.3862  85.7213 14.85606085949651
Epoch: 2026-02-05T09:51Z
TLE epoch observation values (Epoch: 2026-02-05T09:51:28.265Z)
Latitude
0.00001°
Longitude
-179.44934°
Altitude
614.631 km
Speed
7.552 km/s
True Right ascension
06h 55m 55s
True Declination
0° 00' 00"
Sunlit
Object was in full shadow at epoch
Visualization orbit readout
Latitude
Unknown
Longitude
Unknown
Altitude
Unknown
Speed
Unknown
Apparent Right ascension
Unknown
Apparent Declination
Unknown
Sunlit
N/A
Visualization observer readout
Local Sidereal Time
13:33:42
Azimuth
Unknown
Elevation
Unknown
Doppler factor
Unknown
Orbital elements
Apogee altitude
609.591 km
Perigee altitude
607.9 km
Semi-major axis
6,986.883 km
Eccentricity
0.00012
Inclination
98.5085°
RAAN
103.9818°
Arg. of periapsis
274.3862°
True anomaly
85.73513°
Mean anomaly
85.7213°
Eccentric anomaly
85.72821°
Mean motion
3.71636 °/min
Orbital period
96.87 mins
BSTAR
0.003005
Loading maneuver chart data...
Computing Atmospheric mass density...

Documentation

Showing up to 5 results
|